Flag for U.S.A. Weather past 2 weeks in Vista, California, U.S.A.

Now
71 °F

Sunny.


Feels Like: 77 °F
Forecast: 51 / 80 °F
Wind: 8 mph from West

Location: McClellan-Palomar Airport

Current Time: Mar 6, 2015 at 6:01:25 PM

Latest Report: Mar 6, 2015 at 4:53 PM


Visibility: 10 mi

Pressure: 29.97 "Hg

Humidity: 34%

Dew point: 41 °F

Location of VistaLocation

Historic Weather in Vista — Graph

°F

Vista temperature yesterday

Maximum temperature yesterday: 69 °F (at 3:53 PM)
Minimum temperature yesterday: 47 °F (at 4:53 AM)
Average temperature yesterday: 59 °F

Past Weeks' High & Low Weather Summary

 TemperatureHumidityPressure
High79 °F (Mar 6, 10:53 AM)93% (Mar 1, 6:53 AM)30.24 "Hg (Mar 1, 6:53 AM)
Low46 °F (Mar 3, 6:53 AM)11% (Mar 6, 10:53 AM)29.76 "Hg (Feb 27, 3:53 PM)
Average58 °F67%29.98 "Hg
* Reported Feb 19 4:53 PM — Mar 6 4:53 PM, Vista, Weather by CustomWeather, © 2015

Note: Actual official high and low records may vary slightly from our data, if they occured in-between our weather recording intervals... More about our weather records

Advertising

Vista weather history for previous 24 hours

 ConditionsComfort  
Time TempWeatherWind HumidityBarometerVisibility
4:53 PM
Fri, Mar 6
71 °FSunny.8 mph34%29.97 "Hg10 mi
3:53 PM74 °FSunny.10 mph25%29.97 "Hg10 mi
2:53 PM76 °FSunny.9 mph18%29.98 "Hg10 mi
1:53 PM74 °FSunny.10 mph31%29.99 "Hg10 mi
12:53 PM73 °FSunny.15 mph41%30.01 "Hg10 mi
11:53 AM75 °FSunny.9 mph34%30.04 "Hg10 mi
10:53 AM79 °FSunny.7 mph11%30.07 "Hg10 mi
9:53 AM74 °FSunny.8 mph15%30.09 "Hg10 mi
8:53 AM68 °FSunny.7 mph18%30.11 "Hg10 mi
7:53 AM62 °FSunny.3 mph29%30.11 "Hg10 mi
6:53 AM53 °FSunny.5 mph38%30.10 "Hg10 mi
5:53 AM50 °FClear.No wind44%30.10 "Hg10 mi
4:53 AM49 °FClear.3 mph52%30.09 "Hg10 mi
3:53 AM51 °FClear.5 mph48%30.10 "Hg10 mi
2:53 AM50 °FClear.5 mph52%30.10 "Hg10 mi
1:53 AM50 °FClear.5 mph54%30.12 "Hg10 mi
12:53 AM53 °FClear.No wind47%30.11 "Hg10 mi
11:53 PM
Thu, Mar 5
55 °FClear.5 mph45%30.12 "Hg10 mi
10:53 PM55 °FClear.3 mph47%30.14 "Hg10 mi
9:53 PM55 °FClear.No wind51%30.14 "Hg10 mi
8:53 PM57 °FClear.3 mph47%30.14 "Hg10 mi
7:53 PM60 °FClear.3 mph44%30.14 "Hg10 mi
6:53 PM63 °FClear.No wind47%30.14 "Hg10 mi
Weather by CustomWeather, © 2015

See weather overviewHow to use our weather pages